TimeEDT,TemperatureF,Dew PointF,Humidity,Sea Level PressureIn,VisibilityMPH,Wind Direction,Wind SpeedMPH,Gust SpeedMPH,PrecipitationIn,Events,Conditions,WindDirDegrees,DateUTC
12:15 AM,41.0,33.8,76,30.14,10.0,NNE,4.6,-,N/A,,Scattered Clouds,30,2012-10-28 04:15:00
12:35 AM,39.2,33.8,81,30.14,10.0,NNE,5.8,-,N/A,,Scattered Clouds,30,2012-10-28 04:35:00
12:55 AM,39.2,33.8,81,30.14,10.0,NNE,5.8,-,N/A,,Scattered Clouds,20,2012-10-28 04:55:00
1:15 AM,39.2,33.8,81,30.14,10.0,NNE,8.1,-,N/A,,Clear,30,2012-10-28 05:15:00
1:55 AM,37.4,33.8,87,30.12,10.0,North,8.1,-,N/A,,Clear,10,2012-10-28 05:55:00
2:15 AM,35.6,33.8,93,30.11,10.0,North,6.9,-,N/A,,Clear,10,2012-10-28 06:15:00
2:35 AM,37.4,32.0,81,30.12,10.0,NNE,6.9,-,N/A,,Clear,20,2012-10-28 06:35:00
2:55 AM,37.4,32.0,81,30.11,10.0,NNE,9.2,-,N/A,,Clear,20,2012-10-28 06:55:00
3:15 AM,37.4,32.0,81,30.11,10.0,NNE,8.1,-,N/A,,Scattered Clouds,20,2012-10-28 07:15:00
3:35 AM,37.4,32.0,81,30.11,10.0,North,8.1,-,N/A,,Mostly Cloudy,10,2012-10-28 07:35:00
3:55 AM,35.6,32.0,87,30.11,10.0,North,6.9,-,N/A,,Overcast,10,2012-10-28 07:55:00
4:15 AM,37.4,32.0,81,30.10,10.0,NNE,8.1,-,N/A,,Overcast,20,2012-10-28 08:15:00
4:35 AM,37.4,32.0,81,30.10,10.0,North,9.2,-,N/A,,Overcast,360,2012-10-28 08:35:00
4:55 AM,37.4,33.8,87,30.10,10.0,North,10.4,-,N/A,,Overcast,10,2012-10-28 08:55:00
5:15 AM,37.4,33.8,87,30.11,10.0,North,9.2,-,N/A,,Overcast,10,2012-10-28 09:15:00
5:35 AM,37.4,33.8,87,30.11,10.0,North,11.5,-,N/A,,Overcast,10,2012-10-28 09:35:00
5:55 AM,37.4,33.8,87,30.11,10.0,North,11.5,-,N/A,,Overcast,10,2012-10-28 09:55:00
6:15 AM,37.4,33.8,87,30.11,10.0,North,8.1,-,N/A,,Overcast,10,2012-10-28 10:15:00
6:35 AM,37.4,33.8,87,30.12,10.0,North,9.2,-,N/A,,Overcast,10,2012-10-28 10:35:00
6:55 AM,37.4,33.8,87,30.11,10.0,North,10.4,-,N/A,,Overcast,10,2012-10-28 10:55:00
7:15 AM,37.4,33.8,87,30.11,10.0,North,11.5,-,N/A,,Overcast,10,2012-10-28 11:15:00
7:35 AM,37.4,33.8,87,30.11,10.0,North,15.0,20.7,N/A,,Overcast,10,2012-10-28 11:35:00
7:55 AM,37.4,33.8,87,30.11,10.0,North,13.8,20.7,N/A,,Overcast,10,2012-10-28 11:55:00
8:15 AM,37.4,32.0,81,30.11,10.0,NNE,9.2,20.7,N/A,,Overcast,20,2012-10-28 12:15:00
8:35 AM,37.4,32.0,81,30.11,10.0,NNE,12.7,23.0,N/A,,Overcast,20,2012-10-28 12:35:00
8:55 AM,37.4,32.0,81,30.12,10.0,North,13.8,17.3,N/A,,Overcast,10,2012-10-28 12:55:00
9:15 AM,39.2,32.0,75,30.12,10.0,NNE,15.0,19.6,N/A,,Overcast,20,2012-10-28 13:15:00
9:35 AM,41.0,32.0,70,30.12,10.0,North,15.0,20.7,N/A,,Overcast,10,2012-10-28 13:35:00
9:55 AM,41.0,32.0,70,30.12,10.0,North,16.1,21.9,N/A,,Overcast,10,2012-10-28 13:55:00
10:15 AM,41.0,32.0,70,30.12,10.0,NNE,12.7,25.3,N/A,,Overcast,20,2012-10-28 14:15:00
10:35 AM,41.0,32.0,70,30.11,10.0,North,16.1,24.2,N/A,,Overcast,10,2012-10-28 14:35:00
10:55 AM,41.0,32.0,70,30.10,10.0,North,16.1,23.0,N/A,,Mostly Cloudy,10,2012-10-28 14:55:00
11:15 AM,42.8,32.0,66,30.10,10.0,North,17.3,24.2,N/A,,Clear,10,2012-10-28 15:15:00
11:35 AM,44.6,33.8,66,30.10,10.0,North,12.7,21.9,N/A,,Clear,10,2012-10-28 15:35:00
11:55 AM,44.6,33.8,66,30.10,10.0,NNE,13.8,19.6,N/A,,Scattered Clouds,20,2012-10-28 15:55:00
12:15 PM,44.6,33.8,66,30.08,10.0,NNE,17.3,23.0,N/A,,Scattered Clouds,20,2012-10-28 16:15:00
12:35 PM,44.6,33.8,66,30.08,10.0,NNE,15.0,24.2,N/A,,Scattered Clouds,20,2012-10-28 16:35:00
12:55 PM,44.6,33.8,66,30.08,10.0,NNE,12.7,25.3,N/A,,Mostly Cloudy,20,2012-10-28 16:55:00
1:15 PM,44.6,33.8,66,30.07,10.0,NNE,12.7,21.9,N/A,,Overcast,20,2012-10-28 17:15:00
1:35 PM,44.6,33.8,66,30.06,10.0,NNE,19.6,25.3,N/A,,Overcast,20,2012-10-28 17:35:00
1:55 PM,44.6,33.8,66,30.06,10.0,NNE,13.8,24.2,N/A,,Overcast,20,2012-10-28 17:55:00
2:15 PM,44.6,33.8,66,30.06,10.0,NNE,12.7,21.9,N/A,,Overcast,20,2012-10-28 18:15:00
2:35 PM,44.6,33.8,66,30.06,10.0,NNE,13.8,21.9,N/A,,Overcast,20,2012-10-28 18:35:00
2:55 PM,44.6,33.8,66,30.05,10.0,NNE,13.8,23.0,N/A,,Overcast,20,2012-10-28 18:55:00
3:15 PM,44.6,33.8,66,30.06,10.0,NNE,13.8,18.4,N/A,,Overcast,20,2012-10-28 19:15:00
3:35 PM,44.6,33.8,66,30.06,10.0,North,13.8,19.6,N/A,,Overcast,10,2012-10-28 19:35:00
3:55 PM,44.6,33.8,66,30.06,10.0,North,16.1,20.7,N/A,,Overcast,360,2012-10-28 19:55:00
4:15 PM,44.6,33.8,66,30.06,10.0,North,11.5,17.3,N/A,,Overcast,10,2012-10-28 20:15:00
4:35 PM,44.6,33.8,66,30.06,10.0,North,12.7,18.4,N/A,,Overcast,10,2012-10-28 20:35:00
4:55 PM,44.6,33.8,66,30.06,10.0,North,11.5,-,N/A,,Overcast,360,2012-10-28 20:55:00
5:15 PM,44.6,33.8,66,30.06,10.0,North,13.8,20.7,N/A,,Overcast,360,2012-10-28 21:15:00
5:35 PM,44.6,33.8,66,30.06,10.0,North,12.7,23.0,N/A,,Overcast,360,2012-10-28 21:35:00
5:55 PM,44.6,33.8,66,30.06,10.0,North,12.7,17.3,N/A,,Overcast,360,2012-10-28 21:55:00
6:15 PM,44.6,33.8,66,30.06,10.0,North,15.0,-,N/A,,Overcast,360,2012-10-28 22:15:00
6:35 PM,44.6,33.8,66,30.05,10.0,North,10.4,20.7,N/A,,Overcast,350,2012-10-28 22:35:00
6:55 PM,42.8,33.8,70,30.06,10.0,North,13.8,21.9,N/A,,Overcast,350,2012-10-28 22:55:00
7:15 PM,42.8,33.8,70,30.07,10.0,North,13.8,-,N/A,,Overcast,350,2012-10-28 23:15:00
7:35 PM,42.8,33.8,70,30.07,10.0,North,11.5,18.4,N/A,,Overcast,360,2012-10-28 23:35:00
7:55 PM,42.8,33.8,70,30.08,10.0,North,10.4,17.3,N/A,,Overcast,360,2012-10-28 23:55:00
8:15 PM,42.8,33.8,70,30.08,10.0,North,9.2,16.1,N/A,,Overcast,360,2012-10-29 00:15:00
8:35 PM,42.8,33.8,70,30.08,10.0,North,11.5,-,N/A,,Overcast,10,2012-10-29 00:35:00
8:55 PM,42.8,32.0,66,30.08,10.0,North,9.2,19.6,N/A,,Overcast,10,2012-10-29 00:55:00
9:15 PM,42.8,32.0,66,30.08,10.0,NNE,11.5,18.4,N/A,,Overcast,20,2012-10-29 01:15:00
9:35 PM,42.8,32.0,66,30.08,10.0,North,12.7,23.0,N/A,,Overcast,10,2012-10-29 01:35:00
9:55 PM,41.0,30.2,65,30.08,10.0,North,15.0,24.2,N/A,,Overcast,10,2012-10-29 01:55:00
10:15 PM,41.0,32.0,70,30.08,10.0,North,9.2,20.7,N/A,,Scattered Clouds,360,2012-10-29 02:15:00
10:35 PM,41.0,32.0,70,30.08,10.0,North,15.0,20.7,N/A,,Clear,360,2012-10-29 02:35:00
10:55 PM,41.0,30.2,65,30.08,10.0,North,13.8,20.7,N/A,,Clear,10,2012-10-29 02:55:00
11:15 PM,39.2,30.2,70,30.07,10.0,North,15.0,19.6,N/A,,Clear,360,2012-10-29 03:15:00
11:35 PM,39.2,30.2,70,30.07,10.0,North,13.8,19.6,N/A,,Clear,360,2012-10-29 03:35:00
11:55 PM,39.2,30.2,70,30.07,10.0,North,12.7,21.9,N/A,,Clear,360,2012-10-29 03:55:00